"SCET";"TARGET";"ELECTRON_DENSITY";"ERROR_FLAG";"ELECTRON_DENSITY_ERROR";"FREQ_FCE";"MEASURED_VALUE";"MEASURED_ITEM";"FREQ_PLASMA";"FREQ_UPPER_HYBRID";"FREQ_R_EQUALS_ZERO";"FREQ_L_EQUALS_ZERO";"ORBIT_NUMBER";"SATURN_RADIUS";"SATURN_IAU_LONGITUDE";"SATURN_SLS4_S_LONGITUDE";"SATURN_SLS4_N_LONGITUDE";"SATURN_SLS5_S_LONGITUDE";"SATURN_SLS5_N_LONGITUDE";"SATURN_LOCAL_TIME";"SATURN_KRONOGRAPHIC_LATITUDE";"SATURN_MAGNETIC_LATITUDE";"SATURN_L";"SATURN_L_OFFSET";"SATURN_SOLAR_EQUATORIAL_X";"SATURN_SOLAR_EQUATORIAL_Y";"SATURN_SOLAR_EQUATORIAL_Z";"SATURN_ALTITUDE";"ENCELADUS_ENCOUNTER_NUMBER";"ENCELADUS_RADIUS";"ENCELADUS_COROTATIONAL_X";"ENCELADUS_COROTATIONAL_Y";"ENCELADUS_COROTATIONAL_Z";"ENCELADUS_TRUE_ANOMALY";"ENCELADUS_PERIAPSIS_TIME";"JUPITER_RADIUS";"JUPITER_SYSTEMIII_LONGITUDE";"JUPITER_MAGNETIC_LATITUDE";"JUPITER_MAGNETIC_LOCAL_TIME";"JUPITER_L";"IO_PHASE";"EARTH_RADIUS";"EARTH_MAGNETIC_LATITUDE";"EARTH_LOCAL_TIME";"EARTH_L"
"[UTC]";"[0=Saturn, 1=Enceladus, 2=Jupiter, 3=Earth]";"[cm-3]";"[0=automated, 1=manual]";"[normalized density error]";"[Hz]";"[Hz]";"[0=upper hybrid frequency, 1=plasma frequency cutoff]";"[Hz]";"[Hz]";"[Hz]";"[Hz}";"[0, A, B, C, 3, 4, ... , 292, 293]";"[Rs where 1Rs=60268km]";"[degrees]";"[degrees]";"[degrees]";"[degrees]";"[degrees]";"[hours]";"[degrees]";"[degrees where offset=2293km north]";"[Rs where 1Rs=60268km]";"[Rs where 1Rs=60268km and offset=2293km north]";"[Rs where 1Rs=60268km]";"[Rs where 1Rs=60268km]";"[Rs where 1Rs=60268km]";"[km where ellipsoid a,b=60268km and c=54364km]";"[E0, E1, E2, ... , E21, E22]";"[Renc where 1Renc=252.1km]";"[Renc where 1Renc=252.1km]";"[Renc where 1Renc=252.1km]";"[Renc where 1Renc=252.1km]";"[degrees]";"[UTC]";"[Rj where 1Rj=71492km]";"[degrees]";"[degrees using JRM09 model]";"[hours using JRM09 model]";"[Rj where 1Rj=71492km]";"[degrees]";"[Re where 1Re=6378.1366km]";"[degrees]";"[hours]";"[Re where 1Re=6378.1366km]"
2006-08-16T11:37:05.603Z;0;4.0270e+00;0;     0.173;  1503.180;  18082.195; 0;  18019.607;  18082.195;  18786.865;  17283.684; 27;   7.144; 319.277;  71.360; 318.738;  75.519; 321.940;   5.907; -11.700; -11.998;   7.450;   7.144;  -0.170;  -6.993;  -1.449;;;;;;;;;;;;;;;;;;
2006-08-16T11:37:21.603Z;0;3.8830e+00;0;     0.175;  1503.180;  17758.975; 0;  17695.242;  17758.975;  18462.787;  16959.607; 27;   7.142; 319.406;  71.487; 318.868;  75.644; 322.072;   5.908; -11.703; -12.002;   7.448;   7.142;  -0.168;  -6.991;  -1.449;;;;;;;;;;;;;;;;;;
2006-08-16T11:38:41.602Z;0;3.9360e+00;0;     0.219;  1500.296;  17878.049; 0;  17814.986;  17878.049;  18580.922;  17080.625; 27;   7.132; 320.052;  72.121; 319.518;  76.269; 322.731;   5.915; -11.720; -12.019;   7.439;   7.132;  -0.155;  -6.981;  -1.449;;;;;;;;;;;;;;;;;;
2006-08-16T11:38:57.602Z;0;3.6340e+00;0;     0.150;  1500.296;  17184.059; 0;  17118.439;  17184.059;  17885.016;  16384.721; 27;   7.130; 320.181;  72.248; 319.648;  76.393; 322.863;   5.917; -11.723; -12.022;   7.437;   7.130;  -0.152;  -6.979;  -1.449;;;;;;;;;;;;;;;;;;
2006-08-16T11:40:17.602Z;0;3.5690e+00;0;     0.144;  1513.092;  17031.961; 0;  16964.617;  17031.961;  17738.023;  16224.933; 27;   7.120; 320.826;  72.882; 320.297;  77.018; 323.523;   5.924; -11.740; -12.039;   7.427;   7.120;  -0.139;  -6.969;  -1.449;;;;;;;;;;;;;;;;;;
2006-08-16T11:40:49.601Z;0;3.5960e+00;0;     0.151;  1513.092;  17095.773; 0;  17028.682;  17095.773;  17802.025;  16288.934; 27;   7.116; 321.084;  73.135; 320.557;  77.272; 323.784;   5.926; -11.747; -12.046;   7.423;   7.116;  -0.134;  -6.965;  -1.449;;;;;;;;;;;;;;;;;;
2006-08-16T11:41:05.601Z;0;3.6420e+00;0;     0.148;  1535.156;  17205.992; 0;  17137.371;  17205.992;  17922.129;  16386.973; 27;   7.114; 321.214;  73.262; 320.687;  77.400; 323.915;   5.928; -11.750; -12.050;   7.421;   7.114;  -0.131;  -6.963;  -1.449;;;;;;;;;;;;;;;;;;
2006-08-16T11:41:21.601Z;0;3.7650e+00;0;     0.158;  1535.156;  17491.061; 0;  17423.561;  17491.061;  18208.039;  16672.883; 27;   7.112; 321.343;  73.388; 320.817;  77.527; 324.046;   5.929; -11.753; -12.053;   7.419;   7.112;  -0.129;  -6.961;  -1.449;;;;;;;;;;;;;;;;;;
2006-08-16T11:41:37.601Z;0;3.6110e+00;0;     0.141;  1535.156;  17133.975; 0;  17065.062;  17133.975;  17849.895;  16314.739; 27;   7.110; 321.472;  73.515; 320.946;  77.654; 324.177;   5.931; -11.757; -12.056;   7.418;   7.110;  -0.126;  -6.959;  -1.449;;;;;;;;;;;;;;;;;;
2006-08-16T11:41:53.601Z;0;3.6480e+00;0;     0.164;  1535.156;  17220.873; 0;  17152.311;  17220.873;  17937.055;  16401.898; 27;   7.108; 321.601;  73.642; 321.076;  77.781; 324.308;   5.932; -11.760; -12.060;   7.416;   7.108;  -0.123;  -6.957;  -1.449;;;;;;;;;;;;;;;;;;
2006-08-16T11:42:09.601Z;0;3.8810e+00;0;     0.168;  1547.336;  17757.730; 0;  17690.188;  17757.730;  18480.766;  16933.430; 27;   7.106; 321.730;  73.768; 321.206;  77.909; 324.439;   5.934; -11.763; -12.063;   7.414;   7.106;  -0.121;  -6.955;  -1.449;;;;;;;;;;;;;;;;;;
2006-08-16T11:42:25.601Z;0;3.9220e+00;0;     0.173;  1547.336;  17851.150; 0;  17783.963;  17851.150;  18574.451;  17027.115; 27;   7.104; 321.859;  73.895; 321.336;  78.036; 324.570;   5.935; -11.767; -12.067;   7.412;   7.104;  -0.118;  -6.953;  -1.449;;;;;;;;;;;;;;;;;;
2006-08-16T11:42:41.601Z;0;3.7550e+00;0;     0.163;  1547.336;  17469.477; 0;  17400.814;  17469.477;  18191.674;  16644.338; 27;   7.102; 321.987;  74.022; 321.466;  78.164; 324.701;   5.936; -11.770; -12.070;   7.410;   7.102;  -0.116;  -6.951;  -1.449;;;;;;;;;;;;;;;;;;
2006-08-16T11:43:13.600Z;0;3.6780e+00;0;     0.148;  1552.152;  17292.186; 0;  17222.385;  17292.186;  18015.938;  16463.785; 27;   7.098; 322.245;  74.275; 321.725;  78.419; 324.962;   5.939; -11.777; -12.077;   7.406;   7.098;  -0.110;  -6.947;  -1.449;;;;;;;;;;;;;;;;;;
2006-08-16T11:43:29.600Z;0;3.7770e+00;0;     0.178;  1552.152;  17521.414; 0;  17452.529;  17521.414;  18245.852;  16693.699; 27;   7.096; 322.374;  74.401; 321.855;  78.547; 325.093;   5.941; -11.780; -12.080;   7.404;   7.096;  -0.108;  -6.945;  -1.449;;;;;;;;;;;;;;;;;;
2006-08-16T11:43:45.600Z;0;3.6740e+00;0;     0.174;  1552.152;  17281.523; 0;  17211.678;  17281.523;  18005.242;  16453.090; 27;   7.094; 322.503;  74.528; 321.984;  78.674; 325.224;   5.942; -11.783; -12.084;   7.402;   7.094;  -0.105;  -6.943;  -1.449;;;;;;;;;;;;;;;;;;
2006-08-16T11:44:01.600Z;0;3.6720e+00;0;     0.160;  1562.400;  17279.645; 0;  17208.865;  17279.645;  18007.787;  16445.387; 27;   7.092; 322.632;  74.655; 322.114;  78.802; 325.354;   5.943; -11.787; -12.087;   7.400;   7.092;  -0.103;  -6.941;  -1.449;;;;;;;;;;;;;;;;;;
2006-08-16T11:44:17.600Z;0;3.6800e+00;0;     0.165;  1562.400;  17297.883; 0;  17227.178;  17297.883;  18026.082;  16463.682; 27;   7.089; 322.761;  74.781; 322.244;  78.930; 325.485;   5.945; -11.790; -12.091;   7.398;   7.090;  -0.100;  -6.939;  -1.449;;;;;;;;;;;;;;;;;;
2006-08-16T11:44:33.600Z;0;3.8240e+00;0;     0.148;  1562.400;  17629.449; 0;  17560.080;  17629.449;  18358.646;  16796.248; 27;   7.087; 322.890;  74.908; 322.373;  79.058; 325.616;   5.946; -11.793; -12.094;   7.396;   7.088;  -0.097;  -6.937;  -1.449;;;;;;;;;;;;;;;;;;
2006-08-16T11:44:49.600Z;0;3.7250e+00;0;     0.164;  1562.400;  17402.885; 0;  17332.607;  17402.885;  18131.404;  16569.004; 27;   7.085; 323.019;  75.034; 322.503;  79.186; 325.747;   5.948; -11.797; -12.097;   7.395;   7.086;  -0.095;  -6.935;  -1.449;;;;;;;;;;;;;;;;;;
2006-08-16T11:45:05.600Z;0;3.7130e+00;0;     0.151;  1567.720;  17373.883; 0;  17303.008;  17373.883;  18104.613;  16536.893; 27;   7.083; 323.148;  75.161; 322.633;  79.314; 325.877;   5.949; -11.800; -12.101;   7.393;   7.084;  -0.092;  -6.933;  -1.449;;;;;;;;;;;;;;;;;;
2006-08-16T11:45:21.600Z;0;3.7010e+00;0;     0.154;  1567.720;  17345.596; 0;  17274.604;  17345.596;  18076.240;  16508.520; 27;   7.081; 323.276;  75.287; 322.762;  79.442; 326.008;   5.950; -11.803; -12.104;   7.391;   7.082;  -0.090;  -6.931;  -1.449;;;;;;;;;;;;;;;;;;
2006-08-16T11:45:37.600Z;0;3.7730e+00;0;     0.157;  1567.720;  17513.850; 0;  17443.543;  17513.850;  18245.006;  16677.285; 27;   7.079; 323.405;  75.414; 322.892;  79.570; 326.139;   5.952; -11.807; -12.108;   7.389;   7.080;  -0.087;  -6.929;  -1.449;;;;;;;;;;;;;;;;;;
2006-08-16T11:46:25.599Z;0;3.7540e+00;0;     0.157;  1576.848;  17469.195; 0;  17397.883;  17469.195;  18204.162;  16627.314; 27;   7.073; 323.792;  75.793; 323.281;  79.955; 326.531;   5.956; -11.817; -12.118;   7.383;   7.074;  -0.079;  -6.923;  -1.449;;;;;;;;;;;;;;;;;;
2006-08-16T11:46:41.599Z;0;3.6870e+00;0;     0.111;  1576.848;  17316.057; 0;  17244.111;  17316.057;  18050.549;  16473.701; 27;   7.071; 323.920;  75.919; 323.410;  80.084; 326.662;   5.958; -11.820; -12.121;   7.381;   7.072;  -0.077;  -6.921;  -1.448;;;;;;;;;;;;;;;;;;
2006-08-16T11:46:57.599Z;0;3.7500e+00;0;     0.135;  1576.848;  17461.623; 0;  17390.279;  17461.623;  18196.566;  16619.719; 27;   7.069; 324.049;  76.046; 323.540;  80.212; 326.792;   5.959; -11.823; -12.125;   7.379;   7.070;  -0.074;  -6.919;  -1.448;;;;;;;;;;;;;;;;;;
2006-08-16T11:47:13.599Z;0;3.7770e+00;0;     0.153;  1579.592;  17522.820; 0;  17451.479;  17522.820;  18259.137;  16679.545; 27;   7.067; 324.178;  76.172; 323.669;  80.340; 326.923;   5.960; -11.827; -12.128;   7.377;   7.068;  -0.071;  -6.917;  -1.448;;;;;;;;;;;;;;;;;;
2006-08-16T11:47:45.599Z;0;3.7530e+00;0;     0.150;  1579.592;  17467.168; 0;  17395.598;  17467.168;  18203.314;  16623.723; 27;   7.063; 324.435;  76.425; 323.928;  80.598; 327.184;   5.963; -11.834; -12.135;   7.373;   7.064;  -0.066;  -6.913;  -1.448;;;;;;;;;;;;;;;;;;
2006-08-16T11:48:01.599Z;0;3.6630e+00;0;     0.151;  1578.808;  17259.705; 0;  17187.344;  17259.705;  17994.867;  16416.059; 27;   7.061; 324.564;  76.551; 324.058;  80.726; 327.315;   5.965; -11.837; -12.139;   7.372;   7.062;  -0.064;  -6.911;  -1.448;;;;;;;;;;;;;;;;;;
2006-08-16T11:48:17.598Z;0;3.7020e+00;0;     0.173;  1578.808;  17350.371; 0;  17278.389;  17350.371;  18085.816;  16507.010; 27;   7.059; 324.693;  76.678; 324.187;  80.855; 327.445;   5.966; -11.840; -12.142;   7.370;   7.060;  -0.061;  -6.909;  -1.448;;;;;;;;;;;;;;;;;;
2006-08-16T11:48:33.598Z;0;3.6740e+00;0;     0.148;  1578.808;  17283.684; 0;  17211.424;  17283.684;  18018.920;  16440.113; 27;   7.057; 324.822;  76.804; 324.317;  80.984; 327.576;   5.968; -11.844; -12.145;   7.368;   7.058;  -0.058;  -6.907;  -1.448;;;;;;;;;;;;;;;;;;
2006-08-16T11:48:49.598Z;0;3.6730e+00;0;     0.151;  1578.808;  17282.764; 0;  17210.500;  17282.764;  18017.998;  16439.189; 27;   7.055; 324.950;  76.930; 324.446;  81.113; 327.706;   5.969; -11.847; -12.149;   7.366;   7.056;  -0.056;  -6.905;  -1.448;;;;;;;;;;;;;;;;;;
2006-08-16T11:49:05.598Z;0;3.7930e+00;0;     0.167;  1589.756;  17561.307; 0;  17489.201;  17561.307;  18302.133;  16712.377; 27;   7.053; 325.079;  77.057; 324.576;  81.242; 327.837;   5.970; -11.850; -12.152;   7.364;   7.054;  -0.053;  -6.903;  -1.448;;;;;;;;;;;;;;;;;;
2006-08-16T11:49:21.598Z;0;3.7960e+00;0;     0.154;  1589.756;  17567.387; 0;  17495.307;  17567.387;  18308.232;  16718.477; 27;   7.051; 325.207;  77.183; 324.705;  81.371; 327.967;   5.972; -11.854; -12.156;   7.362;   7.052;  -0.051;  -6.901;  -1.448;;;;;;;;;;;;;;;;;;
2006-08-16T11:50:41.598Z;0;3.7710e+00;0;     0.133;  1596.028;  17511.531; 0;  17438.646;  17511.531;  18254.910;  16658.883; 27;   7.041; 325.851;  77.814; 325.352;  82.009; 328.616;   5.979; -11.870; -12.173;   7.352;   7.042;  -0.038;  -6.890;  -1.448;;;;;;;;;;;;;;;;;;
2006-08-16T11:50:57.597Z;0;3.8670e+00;0;     0.172;  1596.028;  17731.258; 0;  17659.281;  17731.258;  18475.316;  16879.289; 27;   7.039; 325.979;  77.941; 325.481;  82.135; 328.745;   5.981; -11.874; -12.176;   7.350;   7.040;  -0.035;  -6.888;  -1.448;;;;;;;;;;;;;;;;;;
2006-08-16T11:51:13.597Z;0;3.7380e+00;0;     0.150;  1599.612;  17435.889; 0;  17362.357;  17435.889;  18180.576;  16580.963; 27;   7.037; 326.108;  78.067; 325.611;  82.261; 328.874;   5.982; -11.877; -12.180;   7.349;   7.038;  -0.032;  -6.886;  -1.448;;;;;;;;;;;;;;;;;;
2006-08-16T11:51:29.597Z;0;3.7350e+00;0;     0.170;  1599.612;  17429.402; 0;  17355.844;  17429.402;  18174.068;  16574.457; 27;   7.035; 326.236;  78.193; 325.740;  82.387; 329.002;   5.983; -11.880; -12.183;   7.347;   7.036;  -0.030;  -6.884;  -1.448;;;;;;;;;;;;;;;;;;
2006-08-16T11:51:45.597Z;0;3.8000e+00;0;     0.152;  1599.612;  17577.996; 0;  17505.062;  17577.996;  18323.129;  16723.518; 27;   7.033; 326.365;  78.319; 325.869;  82.513; 329.131;   5.985; -11.884; -12.187;   7.345;   7.034;  -0.027;  -6.882;  -1.448;;;;;;;;;;;;;;;;;;
2006-08-16T11:52:01.597Z;0;3.9220e+00;0;     0.165;  1606.892;  17857.365; 0;  17784.920;  17857.365;  18606.506;  16999.613; 27;   7.031; 326.493;  78.445; 325.999;  82.639; 329.260;   5.986; -11.887; -12.190;   7.343;   7.032;  -0.024;  -6.880;  -1.448;;;;;;;;;;;;;;;;;;
2006-08-16T11:52:17.597Z;0;3.8970e+00;0;     0.179;  1606.892;  17799.707; 0;  17727.027;  17799.707;  18548.670;  16941.779; 27;   7.029; 326.622;  78.572; 326.128;  82.765; 329.388;   5.988; -11.890; -12.194;   7.341;   7.030;  -0.022;  -6.878;  -1.448;;;;;;;;;;;;;;;;;;
2006-08-16T11:52:33.597Z;0;3.8690e+00;0;     0.159;  1606.892;  17737.080; 0;  17664.143;  17737.080;  18485.852;  16878.959; 27;   7.027; 326.750;  78.698; 326.257;  82.891; 329.516;   5.989; -11.894; -12.197;   7.339;   7.028;  -0.019;  -6.876;  -1.448;;;;;;;;;;;;;;;;;;
2006-08-16T11:52:49.597Z;0;3.7610e+00;0;     0.142;  1606.892;  17489.256; 0;  17415.279;  17489.256;  18237.250;  16630.357; 27;   7.025; 326.879;  78.824; 326.386;  83.016; 329.645;   5.991; -11.897; -12.200;   7.337;   7.026;  -0.017;  -6.874;  -1.448;;;;;;;;;;;;;;;;;;
2006-08-16T11:53:05.597Z;0;3.8210e+00;0;     0.154;  1610.756;  17626.451; 0;  17552.699;  17626.451;  18376.545;  16765.789; 27;   7.023; 327.007;  78.950; 326.516;  83.142; 329.773;   5.992; -11.901; -12.204;   7.335;   7.024;  -0.014;  -6.872;  -1.448;;;;;;;;;;;;;;;;;;
2006-08-16T11:53:21.597Z;0;3.8400e+00;0;     0.158;  1610.756;  17670.754; 0;  17597.188;  17670.754;  18420.986;  16810.230; 27;   7.021; 327.136;  79.076; 326.645;  83.267; 329.901;   5.993; -11.904; -12.207;   7.333;   7.022;  -0.011;  -6.870;  -1.448;;;;;;;;;;;;;;;;;;
2006-08-16T11:53:37.596Z;0;3.7710e+00;0;     0.151;  1610.756;  17511.555; 0;  17437.316;  17511.555;  18261.283;  16650.527; 27;   7.019; 327.264;  79.202; 326.774;  83.393; 330.029;   5.995; -11.907; -12.211;   7.331;   7.020;  -0.009;  -6.868;  -1.448;;;;;;;;;;;;;;;;;;
2006-08-16T11:53:53.596Z;0;3.7680e+00;0;     0.141;  1610.756;  17504.670; 0;  17430.402;  17504.670;  18254.377;  16643.621; 27;   7.017; 327.393;  79.328; 326.903;  83.518; 330.157;   5.996; -11.911; -12.214;   7.329;   7.018;  -0.006;  -6.866;  -1.448;;;;;;;;;;;;;;;;;;
2006-08-16T11:54:09.596Z;0;3.8850e+00;0;     0.140;  1621.844;  17773.531; 0;  17699.379;  17773.531;  18528.869;  16907.025; 27;   7.015; 327.521;  79.454; 327.033;  83.643; 330.285;   5.998; -11.914; -12.218;   7.327;   7.016;  -0.004;  -6.864;  -1.448;;;;;;;;;;;;;;;;;;
2006-08-16T11:54:57.596Z;0;3.8990e+00;0;     0.137;  1621.844;  17806.779; 0;  17732.766;  17806.779;  18562.221;  16940.377; 27;   7.009; 327.906;  79.833; 327.420;  84.018; 330.668;   6.002; -11.924; -12.228;   7.322;   7.010;   0.004;  -6.858;  -1.448;;;;;;;;;;;;;;;;;;
2006-08-16T11:55:13.596Z;0;3.7510e+00;0;     0.130;  1625.540;  17468.025; 0;  17392.227;  17468.025;  18223.977;  16598.438; 27;   7.007; 328.034;  79.959; 327.549;  84.143; 330.796;   6.004; -11.927; -12.231;   7.320;   7.008;   0.007;  -6.856;  -1.448;;;;;;;;;;;;;;;;;;
2006-08-16T11:55:29.596Z;0;3.7420e+00;0;     0.125;  1625.540;  17447.264; 0;  17371.373;  17447.264;  18203.146;  16577.607; 27;   7.005; 328.163;  80.085; 327.678;  84.268; 330.923;   6.005; -11.931; -12.235;   7.318;   7.006;   0.009;  -6.854;  -1.448;;;;;;;;;;;;;;;;;;
2006-08-16T11:55:45.596Z;0;3.7540e+00;0;     0.119;  1625.540;  17474.791; 0;  17399.021;  17474.791;  18230.764;  16605.225; 27;   7.003; 328.291;  80.211; 327.807;  84.393; 331.050;   6.007; -11.934; -12.238;   7.316;   7.004;   0.012;  -6.852;  -1.448;;;;;;;;;;;;;;;;;;
2006-08-16T11:56:17.595Z;0;3.9080e+00;0;     0.138;  1629.404;  17827.697; 0;  17753.080;  17827.697;  18586.465;  16957.061; 27;   6.999; 328.548;  80.462; 328.066;  84.642; 331.305;   6.009; -11.941; -12.245;   7.312;   7.000;   0.017;  -6.847;  -1.448;;;;;;;;;;;;;;;;;;
2006-08-16T11:56:33.595Z;0;3.7980e+00;0;     0.134;  1629.404;  17576.518; 0;  17500.828;  17576.518;  18334.484;  16705.080; 27;   6.997; 328.676;  80.588; 328.195;  84.766; 331.432;   6.011; -11.944; -12.249;   7.310;   6.998;   0.020;  -6.845;  -1.448;;;;;;;;;;;;;;;;;;
2006-08-16T11:56:49.595Z;0;3.7900e+00;0;     0.136;  1629.404;  17557.980; 0;  17482.211;  17557.980;  18315.887;  16686.482; 27;   6.995; 328.804;  80.714; 328.324;  84.891; 331.559;   6.012; -11.947; -12.252;   7.308;   6.996;   0.022;  -6.843;  -1.448;;;;;;;;;;;;;;;;;;
2006-08-16T11:57:05.595Z;0;3.8180e+00;0;     0.151;  1625.512;  17621.176; 0;  17546.041;  17621.176;  18377.611;  16752.100; 27;   6.993; 328.933;  80.840; 328.453;  85.015; 331.686;   6.014; -11.951; -12.255;   7.306;   6.994;   0.025;  -6.841;  -1.448;;;;;;;;;;;;;;;;;;
2006-08-16T11:57:21.595Z;0;3.7880e+00;0;     0.139;  1625.512;  17552.461; 0;  17477.031;  17552.461;  18308.674;  16683.162; 27;   6.991; 329.061;  80.966; 328.582;  85.139; 331.813;   6.015; -11.954; -12.259;   7.304;   6.992;   0.028;  -6.839;  -1.448;;;;;;;;;;;;;;;;;;
2006-08-16T11:57:37.595Z;0;3.8380e+00;0;     0.166;  1625.512;  17666.725; 0;  17591.783;  17666.725;  18423.305;  16797.793; 27;   6.989; 329.189;  81.092; 328.711;  85.263; 331.940;   6.017; -11.958; -12.262;   7.303;   6.990;   0.030;  -6.837;  -1.448;;;;;;;;;;;;;;;;;;
2006-08-16T11:57:53.595Z;0;3.6030e+00;0;     0.112;  1625.512;  17121.768; 0;  17044.432;  17121.768;  17876.555;  16251.042; 27;   6.987; 329.317;  81.218; 328.840;  85.388; 332.066;   6.018; -11.961; -12.266;   7.301;   6.988;   0.033;  -6.835;  -1.448;;;;;;;;;;;;;;;;;;
2006-08-16T11:58:09.595Z;0;3.5810e+00;0;     0.115;  1628.396;  17071.740; 0;  16993.900;  17071.740;  17827.592;  16199.195; 27;   6.985; 329.446;  81.344; 328.969;  85.511; 332.193;   6.020; -11.964; -12.269;   7.299;   6.986;   0.035;  -6.833;  -1.448;;;;;;;;;;;;;;;;;;
2006-08-16T11:58:25.595Z;0;3.6050e+00;0;     0.115;  1628.396;  17127.160; 0;  17049.572;  17127.160;  17883.201;  16254.805; 27;   6.983; 329.574;  81.470; 329.098;  85.635; 332.320;   6.021; -11.968; -12.273;   7.297;   6.984;   0.038;  -6.831;  -1.448;;;;;;;;;;;;;;;;;;
2006-08-16T11:58:41.595Z;0;3.5830e+00;0;     0.115;  1628.396;  17075.562; 0;  16997.740;  17075.562;  17831.428;  16203.031; 27;   6.981; 329.702;  81.596; 329.227;  85.759; 332.446;   6.023; -11.971; -12.276;   7.295;   6.982;   0.041;  -6.829;  -1.448;;;;;;;;;;;;;;;;;;
2006-08-16T11:58:57.594Z;0;3.6060e+00;0;     0.112;  1628.396;  17131.266; 0;  17053.697;  17131.266;  17887.320;  16258.925; 27;   6.979; 329.830;  81.721; 329.356;  85.883; 332.572;   6.024; -11.974; -12.280;   7.293;   6.980;   0.043;  -6.827;  -1.448;;;;;;;;;;;;;;;;;;
2006-08-16T11:59:13.594Z;0;3.5760e+00;0;     0.129;  1638.252;  17061.338; 0;  16982.502;  17061.338;  17821.371;  16183.119; 27;   6.977; 329.958;  81.847; 329.485;  86.006; 332.699;   6.026; -11.978; -12.283;   7.291;   6.978;   0.046;  -6.825;  -1.448;;;;;;;;;;;;;;;;;;
2006-08-16T11:59:45.594Z;0;3.7840e+00;0;     0.106;  1638.252;  17545.533; 0;  17468.883;  17545.533;  18307.203;  16668.951; 27;   6.973; 330.215;  82.099; 329.743;  86.253; 332.951;   6.028; -11.984; -12.290;   7.287;   6.974;   0.051;  -6.821;  -1.448;;;;;;;;;;;;;;;;;;
2006-08-16T12:00:01.594Z;0;3.7540e+00;0;     0.126;  1650.460;  17477.398; 0;  17399.295;  17477.398;  18244.084;  16593.623; 27;   6.971; 330.343;  82.225; 329.872;  86.377; 333.077;   6.030; -11.988; -12.293;   7.285;   6.972;   0.054;  -6.819;  -1.448;;;;;;;;;;;;;;;;;;
2006-08-16T12:00:17.594Z;0;3.8340e+00;0;     0.099;  1650.460;  17660.918; 0;  17583.629;  17660.918;  18428.213;  16777.754; 27;   6.969; 330.471;  82.350; 330.001;  86.502; 333.206;   6.031; -11.991; -12.297;   7.283;   6.970;   0.056;  -6.817;  -1.448;;;;;;;;;;;;;;;;;;
2006-08-16T12:00:49.594Z;0;3.7780e+00;0;     0.137;  1650.460;  17532.861; 0;  17455.006;  17532.861;  18299.732;  16649.271; 27;   6.965; 330.727;  82.602; 330.258;  86.751; 333.464;   6.034; -11.998; -12.304;   7.280;   6.966;   0.061;  -6.812;  -1.448;;;;;;;;;;;;;;;;;;
2006-08-16T12:01:05.594Z;0;3.7360e+00;0;     0.128;  1660.316;  17435.430; 0;  17356.197;  17435.430;  18206.197;  16545.881; 27;   6.963; 330.855;  82.728; 330.387;  86.875; 333.592;   6.036; -12.001; -12.307;   7.278;   6.964;   0.064;  -6.810;  -1.448;;;;;;;;;;;;;;;;;;
2006-08-16T12:01:21.593Z;0;3.7380e+00;0;     0.146;  1660.316;  17440.832; 0;  17361.623;  17440.832;  18211.617;  16551.301; 27;   6.961; 330.983;  82.853; 330.516;  87.000; 333.721;   6.037; -12.005; -12.310;   7.276;   6.962;   0.067;  -6.808;  -1.448;;;;;;;;;;;;;;;;;;
2006-08-16T12:01:37.593Z;0;3.8410e+00;0;     0.153;  1660.316;  17677.273; 0;  17599.129;  17677.273;  18448.855;  16788.539; 27;   6.959; 331.111;  82.979; 330.645;  87.125; 333.850;   6.039; -12.008; -12.314;   7.274;   6.960;   0.069;  -6.806;  -1.448;;;;;;;;;;;;;;;;;;
2006-08-16T12:01:53.593Z;0;3.8420e+00;0;     0.137;  1660.316;  17679.488; 0;  17601.354;  17679.488;  18451.078;  16790.762; 27;   6.957; 331.239;  83.105; 330.774;  87.249; 333.979;   6.040; -12.011; -12.317;   7.272;   6.958;   0.072;  -6.804;  -1.448;;;;;;;;;;;;;;;;;;
2006-08-16T12:02:09.593Z;0;3.6430e+00;0;     0.132;  1665.132;  17220.314; 0;  17139.619;  17220.314;  17992.395;  16327.263; 27;   6.955; 331.367;  83.230; 330.902;  87.374; 334.108;   6.042; -12.015; -12.321;   7.270;   6.956;   0.074;  -6.802;  -1.448;;;;;;;;;;;;;;;;;;
2006-08-16T12:02:25.593Z;0;3.8540e+00;0;     0.123;  1665.132;  17706.887; 0;  17628.420;  17706.887;  18480.635;  16815.504; 27;   6.953; 331.495;  83.356; 331.031;  87.498; 334.238;   6.043; -12.018; -12.324;   7.268;   6.954;   0.077;  -6.800;  -1.448;;;;;;;;;;;;;;;;;;
2006-08-16T12:02:41.593Z;0;3.6430e+00;0;     0.157;  1665.132;  17219.707; 0;  17139.010;  17219.707;  17991.785;  16326.653; 27;   6.951; 331.623;  83.482; 331.160;  87.623; 334.367;   6.045; -12.021; -12.328;   7.266;   6.952;   0.080;  -6.798;  -1.448;;;;;;;;;;;;;;;;;;
2006-08-16T12:02:57.593Z;0;3.5310e+00;0;     0.173;  1665.132;  16955.510; 0;  16873.549;  16955.510;  17726.643;  16061.510; 27;   6.949; 331.751;  83.607; 331.289;  87.747; 334.496;   6.046; -12.025; -12.331;   7.264;   6.950;   0.082;  -6.796;  -1.448;;;;;;;;;;;;;;;;;;
2006-08-16T12:03:13.593Z;0;3.6550e+00;0;     0.144;  1671.376;  17248.197; 0;  17167.027;  17248.197;  18023.043;  16351.667; 27;   6.947; 331.879;  83.733; 331.418;  87.872; 334.625;   6.048; -12.028; -12.335;   7.262;   6.948;   0.085;  -6.794;  -1.448;;;;;;;;;;;;;;;;;;
2006-08-16T12:03:29.593Z;0;3.6990e+00;0;     0.121;  1671.376;  17350.602; 0;  17269.912;  17350.602;  18125.809;  16454.432; 27;   6.945; 332.007;  83.859; 331.546;  87.996; 334.755;   6.049; -12.031; -12.338;   7.260;   6.946;   0.088;  -6.792;  -1.448;;;;;;;;;;;;;;;;;;
2006-08-16T12:03:45.593Z;0;3.8530e+00;0;     0.113;  1671.376;  17704.992; 0;  17625.926;  17704.992;  18481.414;  16810.037; 27;   6.943; 332.135;  83.984; 331.675;  88.121; 334.884;   6.051; -12.035; -12.342;   7.259;   6.944;   0.090;  -6.790;  -1.448;;;;;;;;;;;;;;;;;;
2006-08-16T12:04:01.592Z;0;3.7210e+00;0;     0.159;  1675.184;  17403.570; 0;  17322.760;  17403.570;  18180.590;  16505.406; 27;   6.941; 332.263;  84.110; 331.804;  88.245; 335.014;   6.052; -12.038; -12.345;   7.257;   6.942;   0.093;  -6.787;  -1.448;;;;;;;;;;;;;;;;;;